Location: Whelan
(46.7841°N, 117.1166°W)
Time: 11:51:10
(UTC+00:00)

Envisat - Pass Details

Date: 17 April 2024
Orbit: 762 x 764 km, 98.3° (Epoch: 26 May)

Event Time Altitude Azimuth Distance (km) Brightness Sun altitude
Rises 10:50:38 0° 18° (NNE) 3,240 7.3 -19.5°
Reaches altitude 10° 10:53:01 10° 23° (NNE) 2,309 6.4 -19.2°
Maximum altitude 10:57:58 51° 100° (E) 956 3.7 -18.6°
Enters shadow 11:02:26 13° 174° (S) 2,121 5.0 -18.0°
